[[{"header":{"parameterUnit":"m.s-1","parameterCategory":1,"la1":30.2991,"la2":30.254,"lo1":-89.0895,"lo2":-89.0444,"dy":0.0017,"dx":0.0017,"nx":28,"ny":28,"refTime":"2026-01-05T03:00:00:Z","depth":0,"parameterNumber":2,"parameterNumberName":"U-component_of_WINDS"},"data":[0,0,0,0,0,0,0,0,0,0,0,0,0,0,0,0,0,0,0,0,0,0,0,0,0,0,0,0,0,0,0,0,0,0,0,0,0,0,0,0,0,0,0,0,0,0,0,0,0,0,0,0,0,0,0,0,0,0,-1.8895,-1.8896,0,-1.9027,-1.9029,-1.903,-1.907,-1.907,-1.9069,-1.9068,-1.9207,-1.9212,-1.9216,0,0,0,0,0,0,0,0,0,0,0,0,0,-1.8681,-1.8685,-1.8894,-1.8896,-1.8898,-1.9027,-1.9029,-1.903,-1.907,-1.907,-1.9069,-1.9068,-1.9206,-1.9211,-1.9216,0,0,0,0,0,0,0,0,0,0,0,0,0,-1.879,-1.8686,-1.8894,-1.8933,-1.8938,-1.9026,-1.9029,-1.9031,-1.9071,-1.907,-1.9069,-1.9068,-1.9204,-1.9211,-1.9217,-1.9277,0,0,-1.9237,-1.924,0,0,0,0,0,0,0,0,-1.8784,-1.8798,-1.8926,-1.8931,-1.8936,-1.9031,-1.9005,-1.9114,-1.9071,-1.902,-1.9068,-1.9067,-1.915,-1.9161,-1.9188,-1.9284,-1.929,-1.9237,-1.9241,-1.9244,-1.9246,0,0,0,0,0,0,0,-1.8776,-1.8792,-1.8947,-1.8928,-1.8934,-1.8946,-1.896,-1.9025,-1.9089,-1.9025,-1.9028,-1.9043,-1.9153,-1.9182,-1.9191,-1.9292,-1.9237,-1.9243,-1.9247,-1.925,-1.9446,-1.9447,0,0,0,0,0,0,-1.8761,-1.8786,-1.8943,-1.8951,-1.8856,-1.895,-1.8966,-1.9002,-1.9089,-1.9101,-1.9044,-1.9044,-1.9171,-1.9184,-1.9197,-1.9273,-1.9244,-1.925,-1.9254,-1.9445,-1.9446,-1.9448,0,0,0,0,0,0,-1.8756,-1.8775,-1.8938,-1.8869,-1.8891,-1.8955,-1.8994,-1.9005,-1.9034,-1.9103,-1.9115,-1.9061,-1.9171,-1.9187,-1.9257,-1.9279,-1.9253,-1.9259,-1.9443,-1.9445,-1.9447,-1.9426,0,0,0,0,0,0,-1.875,-1.8773,-1.8795,-1.8869,-1.8894,-1.8994,-1.8996,-1.9008,-1.9044,-1.9047,-1.9122,-1.9134,-1.9171,-1.9247,-1.9264,-1.9287,-1.9264,-1.9441,-1.9444,-1.9446,-1.9425,-1.9427,-1.9429,0,0,0,0,0,-1.8742,-1.8784,-1.8796,-1.8815,-1.8923,-1.8995,-1.901,-1.905,-1.9046,-1.907,-1.9115,-1.9132,-1.9274,-1.9254,-1.9273,-1.9298,-1.944,-1.9443,-1.9446,-1.9425,-1.9427,-1.9429,0,0,0,0,0,0,-1.8711,-1.8795,-1.8808,-1.8875,-1.8928,-1.9002,-1.9032,-1.9051,-1.9107,-1.9107,-1.9156,-1.9173,-1.9239,-1.9277,-1.9253,-1.9363,-1.9358,-1.9365,-1.9335,-1.9338,-1.934,-1.9329,-1.927,0,0,0,0,0,-1.8712,-1.8762,-1.8833,-1.8886,-1.8911,-1.8967,-1.9,-1.9027,-1.9084,-1.9107,-1.9157,-1.9212,-1.927,-1.9306,-1.9363,-1.9432,-1.945,-1.9459,-1.9461,-1.9462,-1.9467,-1.9508,-1.9513,-1.9458,-1.9457,-1.9457,0,0,-1.8715,-1.8766,-1.8795,-1.8881,-1.8924,-1.8977,-1.8986,-1.904,-1.908,-1.9116,-1.9184,-1.9223,-1.9289,-1.9358,-1.9391,-1.9391,-1.9487,-1.9466,-1.9467,-1.9471,-1.9511,-1.9516,-1.9521,-1.946,-1.9459,-1.9459,0,0,-1.8745,-1.8789,-1.8838,-1.8882,-1.8948,-1.8985,-1.8997,-1.9069,-1.9096,-1.9165,-1.9193,-1.9243,-1.934,-1.9386,-1.9422,-1.9473,-1.9492,-1.9491,-1.95,-1.9539,-1.9543,-1.9547,-1.9565,-1.9571,-1.9496,-1.9496,-1.9496,0,-1.874,-1.8818,-1.8861,-1.8914,-1.8952,-1.8986,-1.9037,-1.9078,-1.916,-1.9185,-1.9184,-1.9308,-1.9355,-1.9436,-1.9449,-1.9477,-1.9493,-1.9481,-1.9539,-1.9543,-1.9548,-1.9566,-1.9572,-1.9495,-1.9495,-1.9495,-1.9495,0,-1.8808,-1.8862,-1.8894,-1.8971,-1.9013,-1.9064,-1.9117,-1.9154,-1.9179,-1.9217,-1.9288,-1.9346,-1.9415,-1.9437,-1.9462,-1.9523,-1.9521,-1.9529,-1.9525,-1.9551,-1.9569,-1.9576,-1.9494,-1.9494,-1.9495,-1.9495,0,0,-1.882,-1.8921,-1.8932,-1.8968,-1.9045,-1.9089,-1.9144,-1.921,-1.9241,-1.9298,-1.9346,-1.9429,-1.9437,-1.9478,-1.9509,-1.9543,-1.958,-1.9547,-1.9549,-1.955,-1.9652,-1.9644,-1.9651,-1.9594,-1.9595,-1.9596,-1.9646,0,-1.886,-1.8956,-1.8998,-1.9076,-1.9127,-1.9163,-1.9211,-1.9264,-1.9302,-1.9353,-1.9396,-1.9454,-1.946,-1.9485,-1.9521,-1.9568,-1.9601,-1.9565,-1.9639,-1.9641,-1.962,-1.9661,-1.9653,-1.9696,-1.9653,-1.9655,-1.9655,0,-1.8918,-1.8973,-1.9056,-1.9128,-1.9151,-1.9193,-1.9259,-1.9307,-1.9369,-1.9395,-1.9442,-1.9471,-1.9532,-1.9526,-1.9611,-1.9586,-1.962,-1.9648,-1.9651,-1.9658,-1.9648,-1.9668,-1.9711,-1.9717,-1.9667,-1.9666,-1.9665,0,-1.8917,-1.9013,-1.9076,-1.9106,-1.9191,-1.922,-1.9257,-1.9319,-1.9357,-1.9415,-1.9441,-1.9506,-1.9542,-1.9593,-1.964,-1.9631,-1.9721,-1.9719,-1.9745,-1.9744,-1.976,-1.9758,-1.9808,-1.9784,-1.9784,-1.9784,-1.9784,0,-1.8956,-1.9005,-1.9076,-1.9114,-1.9172,-1.9221,-1.9277,-1.9317,-1.9372,-1.942,-1.9456,-1.95,-1.9561,-1.9614,-1.9652,-1.9717,-1.9733,-1.9756,-1.9766,-1.9752,-1.9749,-1.9774,-1.9771,-1.9786,-1.9785,-1.9785,-1.9785,0,-1.8964,-1.9013,-1.9084,-1.9159,-1.918,-1.9219,-1.9284,-1.9324,-1.9365,-1.9425,-1.9443,-1.9507,-1.9572,-1.9625,-1.971,-1.9735,-1.9803,-1.9815,-1.9781,-1.9786,-1.9809,-1.9806,-1.9875,-1.9887,-1.9855,-1.9856,-1.9856,0,-1.8984,-1.9023,-1.9103,-1.9137,-1.9174,-1.9229,-1.9268,-1.9319,-1.9358,-1.9434,-1.9465,-1.9532,-1.9588,-1.969,-1.9746,-1.9811,-1.9824,-1.9844,-1.9834,-1.982,-1.9824,-1.982,-1.9825,-1.9844,-1.9844,-1.9844,-1.9844,0,-1.9016,-1.9039,-1.9093,-1.9156,-1.9202,-1.9255,-1.9309,-1.9335,-1.9397,-1.944,-1.9506,-1.9549,-1.9636,-1.9703,-1.9775,-1.9816,-1.9841,-1.9848,-1.9857,-1.9843,-1.9822,-1.9833,-1.9783,-1.9845,-1.9845,-1.9845,-1.9845,-1.9845,-1.903,-1.9066,-1.9128,-1.9188,-1.9234,-1.9284,-1.9325,-1.9372,-1.9427,-1.95,-1.9528,-1.9596,-1.9661,-1.976,-1.9801,-1.9857,-1.9859,-1.9873,-1.9876,-1.9878,-1.9876,-1.9814,-1.987,-1.987,-1.987,-1.987,-1.987,0,-1.9062,-1.9104,-1.9159,-1.9233,-1.9281,-1.93,-1.9361,-1.94,-1.9459,-1.9516,-1.9571,-1.9648,-1.9713,-1.9775,-1.9844,-1.9877,-1.989,-1.9893,-1.989,-1.99,-1.987,-1.9855,-1.9881,-1.9881,-1.9881,-1.9881,-1.9881,-1.9881,-1.9085,-1.9147,-1.9178,-1.9265,-1.9307,-1.9373,-1.9406,-1.9453,-1.9499,-1.9583,-1.9637,-1.9677,-1.9737,-1.9811,-1.9872,-1.9889,-1.9913,-1.9913,-1.9932,-1.9903,-1.9901,-1.99,-1.9885,-1.9918,-1.9918,-1.9957,-1.9957,-1.9958]},{"header":{"parameterUnit":"m.s-1","parameterCategory":1,"la1":30.2991,"la2":30.254,"lo1":-89.0895,"lo2":-89.0444,"dy":0.0017,"dx":0.0017,"nx":28,"ny":28,"refTime":"2026-01-05T03:00:00:Z","depth":0,"parameterNumber":3,"parameterNumberName":"V-component_of_WINDS"},"data":[0,0,0,0,0,0,0,0,0,0,0,0,0,0,0,0,0,0,0,0,0,0,0,0,0,0,0,0,0,0,0,0,0,0,0,0,0,0,0,0,0,0,0,0,0,0,0,0,0,0,0,0,0,0,0,0,0,0,2.5947,2.5948,0,2.6038,2.6039,2.604,2.6046,2.6044,2.6043,2.6042,2.6134,2.6138,2.6141,0,0,0,0,0,0,0,0,0,0,0,0,0,2.578,2.5783,2.5947,2.5948,2.5949,2.6038,2.6039,2.604,2.6046,2.6044,2.6043,2.6042,2.6133,2.6137,2.6141,0,0,0,0,0,0,0,0,0,0,0,0,0,2.586,2.5784,2.5947,2.5963,2.5965,2.6038,2.6039,2.6041,2.6046,2.6044,2.6043,2.6041,2.6132,2.6137,2.6142,2.6205,0,0,2.6158,2.616,0,0,0,0,0,0,0,0,2.5855,2.5866,2.5959,2.5962,2.5965,2.6029,2.6014,2.6096,2.6046,2.6015,2.6042,2.6041,2.6101,2.6108,2.6129,2.6209,2.6213,2.6158,2.6161,2.6163,2.6165,0,0,0,0,0,0,0,2.585,2.5862,2.5983,2.5961,2.5964,2.5966,2.5975,2.6029,2.6065,2.6018,2.6018,2.6029,2.6102,2.6124,2.6131,2.6214,2.6158,2.6163,2.6166,2.6168,2.6355,2.6357,0,0,0,0,0,0,2.5841,2.5857,2.598,2.5986,2.5905,2.597,2.5981,2.601,2.6065,2.6072,2.603,2.6029,2.6116,2.6125,2.6134,2.6214,2.6163,2.6168,2.6171,2.6353,2.6355,2.6357,0,0,0,0,0,0,2.5837,2.5852,2.5977,2.5922,2.5938,2.5975,2.6007,2.6012,2.6034,2.6074,2.6081,2.6046,2.6115,2.6127,2.6188,2.6217,2.6171,2.6175,2.6351,2.6354,2.6356,2.6372,0,0,0,0,0,0,2.5832,2.585,2.5874,2.5922,2.5941,2.6029,2.6009,2.6015,2.6043,2.6042,2.6091,2.6097,2.6114,2.618,2.6193,2.6223,2.6179,2.6348,2.6352,2.6355,2.6369,2.6375,2.638,0,0,0,0,0,2.5826,2.5874,2.5875,2.589,2.5971,2.603,2.6041,2.606,2.6046,2.607,2.6097,2.6096,2.6212,2.6187,2.6201,2.6233,2.6347,2.6351,2.6355,2.6366,2.6374,2.638,0,0,0,0,0,0,2.5826,2.588,2.5882,2.5947,2.5984,2.6031,2.6062,2.6066,2.6108,2.6105,2.6127,2.6138,2.6199,2.6222,2.6193,2.6298,2.6278,2.6285,2.6281,2.6288,2.6294,2.6287,2.6183,0,0,0,0,0,2.5834,2.5878,2.5922,2.5975,2.5993,2.6025,2.6051,2.6063,2.6102,2.6118,2.6149,2.6187,2.6232,2.6261,2.6305,2.6372,2.6384,2.6402,2.6407,2.6411,2.6418,2.6458,2.6467,2.6371,2.6371,2.6371,0,0,2.585,2.5885,2.5911,2.5976,2.6006,2.6052,2.6038,2.6086,2.612,2.6125,2.6186,2.621,2.6254,2.632,2.635,2.634,2.6447,2.6417,2.642,2.6424,2.6463,2.6472,2.648,2.6374,2.6374,2.6373,0,0,2.5903,2.5932,2.5981,2.6012,2.6059,2.608,2.6092,2.614,2.6156,2.6217,2.6223,2.6265,2.6341,2.6374,2.64,2.6469,2.6471,2.6483,2.6512,2.6551,2.6558,2.6565,2.6592,2.6601,2.6489,2.6489,2.6489,0,2.5916,2.5985,2.6005,2.6054,2.6084,2.6092,2.6142,2.6172,2.623,2.6251,2.6239,2.6339,2.6369,2.6443,2.6461,2.6481,2.6497,2.6477,2.6556,2.6563,2.6569,2.6595,2.6605,2.649,2.649,2.649,2.649,0,2.6001,2.6049,2.6082,2.614,2.6173,2.6223,2.6251,2.6283,2.6293,2.6315,2.6379,2.6416,2.6469,2.6488,2.6497,2.6565,2.6558,2.6551,2.6531,2.6579,2.6604,2.6614,2.6492,2.6492,2.6491,2.6491,0,0,2.6054,2.6125,2.6137,2.6165,2.6219,2.6257,2.6307,2.636,2.6388,2.6428,2.6473,2.6539,2.6535,2.6565,2.6578,2.6612,2.6668,2.6602,2.6603,2.6614,2.6748,2.6754,2.6765,2.667,2.6671,2.6673,2.6745,0,2.6114,2.6205,2.6226,2.6304,2.635,2.636,2.6405,2.6444,2.6467,2.651,2.6535,2.6583,2.6572,2.6591,2.6625,2.6654,2.6695,2.6649,2.6712,2.6714,2.6702,2.6778,2.6783,2.6849,2.6755,2.6756,2.6758,0,2.6195,2.624,2.6323,2.6374,2.6394,2.6434,2.6486,2.6526,2.6571,2.6586,2.6622,2.6632,2.6687,2.6664,2.6741,2.6709,2.6737,2.6755,2.6758,2.6766,2.6739,2.6788,2.6871,2.6881,2.6773,2.6771,2.677,0,2.6229,2.631,2.6371,2.6394,2.6454,2.6482,2.6509,2.6552,2.6584,2.6629,2.665,2.6701,2.6729,2.6769,2.6794,2.6775,2.687,2.6849,2.6885,2.6885,2.6905,2.6904,2.6994,2.6921,2.6921,2.692,2.692,0,2.6294,2.6345,2.6387,2.6424,2.6483,2.6508,2.6565,2.6591,2.6631,2.6675,2.6686,2.6727,2.6757,2.6803,2.6822,2.6885,2.6897,2.6912,2.6917,2.6911,2.691,2.693,2.6927,2.6923,2.6923,2.6922,2.6922,0,2.6341,2.6371,2.6438,2.6491,2.6506,2.6547,2.6592,2.663,2.6655,2.671,2.6725,2.6764,2.6819,2.6848,2.6915,2.6929,2.7,2.7001,2.6985,2.6987,2.7023,2.702,2.7131,2.7148,2.7062,2.7062,2.7063,0,2.6381,2.6421,2.6479,2.651,2.6537,2.6586,2.6619,2.6646,2.668,2.6736,2.6768,2.6823,2.6869,2.6957,2.6992,2.7045,2.7048,2.7084,2.7056,2.7051,2.7051,2.7049,2.7055,2.7089,2.7089,2.709,2.7091,0,2.645,2.6464,2.6511,2.6565,2.6604,2.6647,2.669,2.6714,2.6748,2.6786,2.6843,2.6879,2.695,2.7006,2.7063,2.7091,2.7097,2.7099,2.7111,2.7106,2.7096,2.7105,2.7,2.7096,2.7096,2.7095,2.7095,2.7095,2.6496,2.6534,2.6581,2.6634,2.667,2.671,2.6749,2.678,2.6828,2.6888,2.6901,2.6962,2.7009,2.7086,2.7116,2.7165,2.7157,2.7174,2.7178,2.7182,2.7185,2.7088,2.7175,2.7174,2.7174,2.7174,2.7174,0,2.6568,2.66,2.6648,2.6709,2.6751,2.6754,2.6803,2.6838,2.6892,2.6935,2.6981,2.7048,2.7103,2.7144,2.72,2.7232,2.7237,2.7246,2.7245,2.7252,2.7187,2.7172,2.7242,2.7242,2.7242,2.7242,2.7242,2.7242,2.661,2.6674,2.6694,2.6777,2.6808,2.6868,2.6896,2.6934,2.6969,2.7044,2.709,2.7117,2.716,2.722,2.7272,2.7282,2.7304,2.7313,2.7324,2.7263,2.7256,2.7249,2.7235,2.7317,2.7317,2.7385,2.7386,2.7386]}]]